El Cajon (6925) Station Data

Red Flag Warning: No
Fire Weather Zone: 250
SDGE Region: Eastern
Lat/Lon: 32.795/-116.973

Observations

Time Wind Speed/Gust Temp(F) RH Fuel Moist Fuel Temp(F) Dewpt(F) Tmax(F) Tmin(F) Accum Precip 10-min Precip SL Press(mb)
4/26 2:40am 57 2 G 3 56° 73% - - 48° 60.4° 55.9° - - -
4/26 2:30am 41 2 G 4 57° 72% - - 48° 60.4° 56.4° - - -
4/26 2:20am 23 2 G 3 57° 70% - - 48° 60.4° 56.9° - - -
4/26 2:10am 359 1 G 2 57° 70% - - 47° 60.4° 56.9° - - -
4/26 2:00am 356 2 G 2 57° 70% - - 47° 60.4° 56.9° - - -
4/26 1:50am 354 2 G 3 57° 70% - - 48° 60.4° 56.9° - - -
4/26 1:40am 349 2 G 4 58° 71% - - 49° 60.4° 57.6° - - -
4/26 1:30am 330 1 G 2 58° 71% - - 49° 60.4° 57.7° - - -
4/26 1:20am 318 0 G 2 58° 71% - - 49° 60.4° 57.7° - - -
4/26 1:10am 335 1 G 2 58° 72% - - 49° 60.4° 57.7° - - -
4/26 1:00am 10 0 G 1 58° 74% - - 50° 60.4° 57.8° - - -
4/26 12:50am 170 1 G 1 58° 73% - - 50° 60.4° 58.1° - - -
4/26 12:40am 208 2 G 3 59° 72% - - 50° 60.4° 58.2° - - -
4/26 12:30am 189 1 G 2 59° 71% - - 50° 60.4° 58.7° - - -
4/26 12:20am 108 1 G 2 60° 70% - - 50° 60.4° 59.1° - - -
4/26 12:10am 167 1 G 3 60° 70% - - 50° 60.4° 59.2° - - -
4/26 12:00am 163 1 G 2 60° 70% - - 50° 70.1° 58.1° - - -
4/25 11:50pm 151 1 G 1 60° 70% - - 50° 70.1° 58.1° - - -
4/25 11:40pm 185 1 G 2 60° 70% - - 50° 70.1° 58.1° - - -
4/25 11:30pm 205 1 G 2 60° 71% - - 51° 70.1° 58.1° - - -
4/25 11:20pm 180 1 G 2 60° 71% - - 51° 70.1° 58.1° - - -
4/25 11:10pm 126 2 G 3 60° 71% - - 51° 70.1° 58.1° - - -
4/25 11:00pm 146 1 G 3 60° 74% - - 52° 70.1° 58.1° - - -
4/25 10:50pm 174 1 G 3 60° 75% - - 52° 70.1° 58.1° - - -
4/25 10:40pm 144 2 G 4 61° 73% - - 52° 70.1° 58.1° - - -
4/25 10:30pm 122 2 G 4 61° 71% - - 51° 70.1° 58.1° - - -
4/25 10:20pm 106 2 G 4 61° 67% - - 51° 70.1° 58.1° - - -
4/25 10:10pm 143 1 G 2 61° 66% - - 50° 70.1° 58.1° - - -
4/25 10:00pm 180 1 G 2 62° 66% - - 50° 70.1° 58.1° - - -
4/25 9:50pm 161 2 G 5 62° 63% - - 49° 70.1° 58.1° - - -
4/25 9:40pm 163 2 G 3 62° 60% - - 49° 70.1° 58.1° - - -
4/25 9:30pm 165 1 G 3 63° 59% - - 48° 70.1° 58.1° - - -
4/25 9:20pm 178 1 G 2 63° 57% - - 48° 70.1° 58.1° - - -
4/25 9:10pm 222 2 G 3 63° 57% - - 48° 70.1° 58.1° - - -
4/25 9:00pm 258 2 G 3 63° 55% - - 47° 70.1° 58.1° - - -
4/25 8:50pm 272 2 G 3 63° 54% - - 46° 70.1° 58.1° - - -
4/25 8:40pm 311 1 G 3 64° 54% - - 47° 70.1° 58.1° - - -
4/25 8:30pm 317 1 G 2 64° 54% - - 46° 70.1° 58.1° - - -
4/25 8:20pm 303 1 G 3 64° 53% - - 46° 70.1° 58.1° - - -
4/25 8:10pm 307 1 G 3 64° 53% - - 47° 70.1° 58.1° - - -
4/25 8:00pm 312 2 G 4 64° 53% - - 46° 70.1° 58.1° - - -
4/25 7:50pm 287 2 G 4 64° 52% - - 46° 70.1° 58.1° - - -
4/25 7:40pm 269 2 G 4 64° 52% - - 46° 70.1° 58.1° - - -
4/25 7:30pm 276 1 G 4 64° 52% - - 46° 70.1° 58.1° - - -
4/25 7:20pm 305 2 G 4 64° 52% - - 46° 70.1° 58.1° - - -
4/25 7:10pm 299 3 G 6 64° 52% - - 46° 70.1° 58.1° - - -
4/25 7:00pm 282 4 G 7 65° 51% - - 47° 70.1° 58.1° - - -
4/25 6:50pm 288 3 G 6 65° 51% - - 47° 70.1° 58.1° - - -
4/25 6:40pm 266 4 G 8 65° 52% - - 47° 70.1° 58.1° - - -
4/25 6:30pm 260 4 G 8 65° 51% - - 47° 70.1° 58.1° - - -
4/25 6:20pm 285 4 G 8 66° 52% - - 47° 70.1° 58.1° - - -
4/25 6:10pm 266 6 G 9 66° 51% - - 47° 70.1° 58.1° - - -
4/25 6:00pm 276 4 G 9 66° 50% - - 47° 70.1° 58.1° - - -
4/25 5:50pm 262 6 G 12 66° 51% - - 48° 70.1° 58.1° - - -
4/25 5:40pm 268 6 G 13 67° 50% - - 48° 70.1° 58.1° - - -
4/25 5:30pm 275 5 G 10 67° 50% - - 48° 70.1° 58.1° - - -
4/25 5:20pm 272 6 G 10 66° 51% - - 47° 70.1° 58.1° - - -
4/25 5:10pm 271 7 G 14 66° 53% - - 48° 70.1° 58.1° - - -
4/25 5:00pm 268 7 G 12 67° 55% - - 50° 70.1° 58.1° - - -
4/25 4:50pm 269 7 G 14 67° 55% - - 50° 70.1° 58.1° - - -
4/25 4:40pm 273 7 G 12 67° 55% - - 51° 70.1° 58.1° - - -
4/25 4:30pm 271 6 G 13 68° 54% - - 51° 70.1° 58.1° - - -
4/25 4:20pm 283 5 G 11 68° 53% - - 50° 70.1° 58.1° - - -
4/25 4:10pm 272 6 G 10 68° 52% - - 50° 70.1° 58.1° - - -
4/25 4:00pm 250 6 G 11 69° 53% - - 51° 70.1° 58.1° - - -
4/25 3:50pm 243 8 G 15 69° 53% - - 51° 70.1° 58.1° - - -
4/25 3:40pm 268 7 G 13 68° 54% - - 51° 70.1° 58.1° - - -
4/25 3:30pm 269 6 G 12 69° 53% - - 51° 70.1° 58.1° - - -
4/25 3:20pm 259 6 G 12 68° 54% - - 51° 70.1° 58.1° - - -
4/25 3:10pm 259 7 G 14 69° 53% - - 51° 70.1° 58.1° - - -
4/25 3:00pm 259 7 G 15 69° 52% - - 51° 70.1° 58.1° - - -
4/25 2:50pm 261 7 G 11 69° 54% - - 51° 70.1° 58.1° - - -
4/25 2:40pm 267 6 G 15 69° 54% - - 51° 70.1° 58.1° - - -
4/25 2:30pm 263 7 G 13 69° 53% - - 51° 70.1° 58.1° - - -
4/25 2:20pm 255 7 G 12 69° 52% - - 51° 70.1° 58.1° - - -
4/25 2:10pm 244 8 G 15 68° 53% - - 51° 70.1° 58.1° - - -
4/25 2:00pm 254 8 G 16 68° 55% - - 51° 70.1° 58.1° - - -
4/25 1:50pm 248 8 G 13 68° 54% - - 51° 70.1° 58.1° - - -
4/25 1:40pm 256 6 G 12 69° 52% - - 51° 70.1° 58.1° - - -
4/25 1:30pm 231 8 G 15 68° 56% - - 52° 69° 58.1° - - -
4/25 1:20pm 201 6 G 12 67° 57% - - 52° 69° 58.1° - - -
4/25 1:10pm 225 6 G 13 68° 55% - - 51° 69° 58.1° - - -
4/25 1:00pm 206 7 G 13 67° 57% - - 51° 69° 58.1° - - -
4/25 12:50pm 222 9 G 14 68° 56% - - 51° 69° 58.1° - - -
4/25 12:40pm 240 7 G 13 68° 55% - - 51° 69° 58.1° - - -
4/25 12:30pm 238 7 G 13 67° 56% - - 51° 68.3° 58.1° - - -
4/25 12:20pm 237 8 G 14 67° 57% - - 52° 68.3° 58.1° - - -
4/25 12:10pm 244 7 G 14 67° 57% - - 52° 68.3° 58.1° - - -
4/25 12:00pm 230 7 G 17 67° 58% - - 52° 68.3° 58.1° - - -
4/25 11:50am 238 7 G 13 67° 57% - - 52° 68.3° 58.1° - - -
4/25 11:40am 208 5 G 10 67° 58% - - 51° 67.6° 58.1° - - -
4/25 11:30am 227 6 G 13 67° 59% - - 52° 67.4° 58.1° - - -
4/25 11:20am 223 7 G 12 66° 61% - - 52° 67.1° 58.1° - - -
4/25 11:10am 230 6 G 13 66° 61% - - 52° 67° 58.1° - - -
4/25 11:00am 227 6 G 11 66° 62% - - 52° 67° 58.1° - - -
4/25 10:50am 240 4 G 9 66° 63% - - 53° 66.6° 58.1° - - -
4/25 10:40am 245 7 G 14 66° 62% - - 53° 66.5° 58.1° - - -
4/25 10:30am 192 5 G 16 65° 61% - - 52° 65.9° 58.1° - - -
4/25 10:20am 219 5 G 15 65° 63% - - 52° 65.9° 58.1° - - -
4/25 10:10am 226 6 G 10 64° 64% - - 52° 65.3° 58.1° - - -
4/25 10:00am 240 7 G 13 64° 67% - - 53° 64.9° 58.1° - - -
4/25 9:50am 236 7 G 12 64° 66% - - 52° 64.9° 58.1° - - -
4/25 9:40am 202 3 G 8 63° 67% - - 52° 64.6° 58.1° - - -
4/25 9:30am 242 6 G 10 63° 68% - - 52° 63.8° 58.1° - - -
4/25 9:20am 224 4 G 8 63° 70% - - 53° 63.6° 58.1° - - -
4/25 9:10am 237 5 G 9 62° 71% - - 53° 62.9° 58.1° - - -
4/25 9:00am 233 5 G 9 61° 73% - - 53° 62.3° 58.1° - - -
4/25 8:50am 239 5 G 9 62° 73% - - 53° 62.1° 58.1° - - -
4/25 8:40am 232 6 G 10 61° 74% - - 53° 62.1° 58.1° - - -
4/25 8:30am 204 5 G 12 61° 74% - - 53° 61.7° 58.1° - - -
4/25 8:20am 217 5 G 8 60° 75% - - 53° 61.4° 58.1° - - -
4/25 8:10am 225 5 G 8 60° 76% - - 53° 61.4° 58.1° - - -
4/25 8:00am 215 4 G 11 60° 76% - - 53° 61.3° 58.1° - - -
4/25 7:50am 196 5 G 10 60° 77% - - 53° 60.6° 58.1° - - -
4/25 7:40am 185 4 G 7 60° 78% - - 53° 60.6° 58.1° - - -
4/25 7:30am 187 5 G 11 60° 78% - - 53° 60.4° 58.1° - - -
4/25 7:20am 198 4 G 9 59° 78% - - 53° 60.4° 58.1° - - -
4/25 7:10am 205 4 G 9 59° 78% - - 52° 60.4° 58.1° - - -
4/25 7:00am 188 5 G 13 59° 79% - - 52° 60.4° 58.1° - - -
4/25 6:50am 180 3 G 7 59° 80% - - 53° 60.4° 58.1° - - -
4/25 6:40am 180 3 G 10 59° 81% - - 53° 60.4° 58.1° - - -
4/25 6:30am 156 2 G 5 58° 81% - - 53° 60.4° 58.1° - - -
4/25 6:20am 184 3 G 6 58° 81% - - 53° 60.4° 58.1° - - -
4/25 6:10am 181 3 G 7 59° 81% - - 53° 60.4° 58.1° - - -
4/25 6:00am 193 4 G 8 59° 80% - - 53° 60.4° 58.1° - - -
4/25 5:50am 205 3 G 5 59° 80% - - 53° 60.4° 58.1° - - -
4/25 5:40am 178 3 G 5 59° 80% - - 53° 60.4° 58.1° - - -
4/25 5:30am 186 2 G 5 59° 80% - - 53° 60.4° 58.1° - - -
4/25 5:20am 203 4 G 8 59° 80% - - 53° 60.4° 58.1° - - -
4/25 5:10am 194 5 G 10 59° 81% - - 53° 60.4° 58.1° - - -
4/25 5:00am 206 5 G 12 59° 81% - - 53° 60.4° 58.2° - - -
4/25 4:50am 194 5 G 12 59° 80% - - 52° 60.4° 58.2° - - -
4/25 4:40am 184 5 G 12 59° 78% - - 52° 60.4° 58.4° - - -
4/25 4:30am 198 5 G 14 59° 79% - - 52° 60.4° 58.4° - - -
4/25 4:20am 193 5 G 10 59° 80% - - 53° 60.4° 58.4° - - -
4/25 4:10am 195 4 G 8 59° 79% - - 53° 60.4° 58.6° - - -
4/25 4:00am 169 4 G 8 59° 78% - - 52° 60.4° 58.6° - - -
4/25 3:50am 191 3 G 7 59° 77% - - 52° 60.4° 58.6° - - -
4/25 3:40am 187 5 G 11 59° 77% - - 52° 60.4° 58.7° - - -
4/25 3:30am 179 4 G 8 59° 77% - - 52° 60.4° 58.7° - - -
4/25 3:20am 171 5 G 9 59° 75% - - 52° 60.4° 58.7° - - -
4/25 3:10am 185 5 G 10 59° 75% - - 51° 60.4° 58.7° - - -
4/25 3:00am 196 5 G 9 59° 74% - - 51° 60.4° 58.7° - - -
4/25 2:50am 190 5 G 8 59° 74% - - 51° 60.4° 58.7° - - -
4/25 2:40am 194 4 G 8 59° 74% - - 51° 60.4° 58.7° - - -
4/25 2:30am 189 4 G 8 59° 75% - - 51° 60.4° 58.7° - - -
4/25 2:20am 175 4 G 8 59° 76% - - 52° 60.4° 58.7° - - -
4/25 2:10am 188 5 G 8 59° 76% - - 52° 60.4° 58.9° - - -
4/25 2:00am 209 4 G 7 59° 76% - - 52° 60.4° 58.9° - - -
4/25 1:50am 212 5 G 9 59° 76% - - 52° 60.4° 58.9° - - -
4/25 1:40am 215 7 G 11 59° 75% - - 52° 60.4° 58.9° - - -
4/25 1:30am 202 5 G 9 60° 74% - - 51° 60.4° 58.9° - - -
4/25 1:20am 209 6 G 11 60° 74% - - 51° 60.4° 58.9° - - -
4/25 1:10am 209 5 G 9 60° 75% - - 52° 60.4° 58.9° - - -
4/25 1:00am 210 6 G 12 59° 76% - - 52° 60.4° 58.9° - - -
4/25 12:50am 168 5 G 12 60° 77% - - 52° 60.4° 58.9° - - -
4/25 12:40am 186 5 G 9 59° 77% - - 52° 60.4° 58.9° - - -
4/25 12:30am 194 4 G 9 59° 76% - - 52° 60.4° 58.9° - - -
4/25 12:20am 193 6 G 10 59° 75% - - 52° 60.4° 59° - - -
4/25 12:10am 182 5 G 9 60° 74% - - 51° 60.4° 59.2° - - -
4/25 12:00am 184 4 G 9 60° 74% - - 51° 69.2° 58.7° - - -
4/24 11:50pm 185 4 G 7 60° 73% - - 51° 69.2° 58.7° - - -
4/24 11:40pm 216 3 G 6 60° 74% - - 52° 69.2° 58.7° - - -
4/24 11:30pm 207 3 G 6 60° 75% - - 52° 69.2° 58.7° - - -
4/24 11:20pm 221 5 G 9 60° 77% - - 53° 69.2° 58.7° - - -
4/24 11:10pm 212 5 G 11 60° 76% - - 52° 69.2° 58.7° - - -
4/24 11:00pm 206 6 G 11 60° 77% - - 53° 69.2° 58.7° - - -
4/24 10:50pm 204 5 G 11 60° 76% - - 53° 69.2° 58.7° - - -
4/24 10:40pm 191 3 G 8 60° 74% - - 52° 69.2° 58.7° - - -
4/24 10:30pm 172 4 G 8 60° 73% - - 52° 69.2° 58.7° - - -
4/24 10:20pm 175 4 G 8 60° 74% - - 52° 69.2° 58.7° - - -
4/24 10:10pm 179 4 G 9 60° 75% - - 52° 69.2° 58.7° - - -
4/24 10:00pm 189 4 G 7 60° 74% - - 52° 69.2° 58.7° - - -
4/24 9:50pm 176 3 G 5 60° 74% - - 52° 69.2° 58.7° - - -
4/24 9:40pm 185 4 G 7 60° 75% - - 52° 69.2° 58.7° - - -
4/24 9:30pm 180 4 G 9 60° 75% - - 52° 69.2° 58.7° - - -
4/24 9:20pm 196 4 G 7 60° 73% - - 52° 69.2° 58.7° - - -
4/24 9:10pm 187 5 G 8 60° 73% - - 51° 69.2° 58.7° - - -
4/24 9:00pm 200 5 G 9 60° 73% - - 51° 69.2° 58.7° - - -
4/24 8:50pm 213 5 G 8 60° 74% - - 52° 69.2° 58.7° - - -
4/24 8:40pm 207 5 G 9 61° 74% - - 52° 69.2° 58.7° - - -
4/24 8:30pm 201 4 G 7 61° 74% - - 52° 69.2° 58.7° - - -
4/24 8:20pm 216 5 G 8 61° 74% - - 53° 69.2° 58.7° - - -
4/24 8:10pm 214 5 G 9 61° 74% - - 53° 69.2° 58.7° - - -
4/24 8:00pm 214 6 G 11 61° 74% - - 53° 69.2° 58.7° - - -
4/24 7:50pm 206 5 G 10 61° 73% - - 53° 69.2° 58.7° - - -
4/24 7:40pm 212 6 G 9 62° 73% - - 53° 69.2° 58.7° - - -
4/24 7:30pm 220 5 G 9 62° 72% - - 53° 69.2° 58.7° - - -
4/24 7:20pm 212 5 G 8 62° 72% - - 53° 69.2° 58.7° - - -
4/24 7:10pm 208 5 G 9 63° 72% - - 53° 69.2° 58.7° - - -
4/24 7:00pm 208 4 G 7 63° 72% - - 53° 69.2° 58.7° - - -
4/24 6:50pm 224 4 G 7 63° 71% - - 53° 69.2° 58.7° - - -
4/24 6:40pm 224 5 G 8 63° 70% - - 54° 69.2° 58.7° - - -
4/24 6:30pm 209 5 G 8 63° 71% - - 54° 69.2° 58.7° - - -
4/24 6:20pm 207 4 G 9 63° 71% - - 54° 69.2° 58.7° - - -
4/24 6:10pm 222 5 G 9 64° 71% - - 54° 69.2° 58.7° - - -
4/24 6:00pm 212 6 G 10 64° 71% - - 54° 69.2° 58.7° - - -